Weather History for Lacon, IL

Change the Weather History Date:

Wednesday, February 12, 2014

  Actual Average (KPIA) Record (KPIA)
Temperature  
Mean Temperature 6 °F 28 °F  
Max Temperature 25 °F 37 °F 69 °F (1938)
Min Temperature -14 °F 20 °F -16 °F (1905)
Degree Days  
Heating Degree Days 60 37  
Month to date heating degree days 456  
Since 1 July heating degree days 3977  
Cooling Degree Days 0 0  
Month to date cooling degree days 0  
Year to date cooling degree days 0  
Moisture  
Dew Point 0 °F    
Average Humidity 72    
Maximum Humidity 85    
Minimum Humidity 45    
Precipitation  
Precipitation 0.00 in 0.07 in 1.08 in (1884)
Month to date precipitation 0.68  
Year to date precipitation 2.46  
Snow  
Snow 0.00 in 0.30 in 8.00 in (1896)
Month to date snowfall 2.9  
Since 1 July snowfall 18.0  
Snow Depth -    
Sea Level Pressure  
Sea Level Pressure 30.17 in    
Wind  
Wind Speed 1 mph (SE)    
Max Wind Speed 8 mph    
Max Gust Speed -    
Visibility 10 miles    
Events      
T = Trace of Precipitation, MM = Missing Value Source: NWS Daily Summary

Daily Weather History Graph

Daily Weather History Graph

Search for Another Location

Airport:

Trip Planner

Search our weather history database for the weather conditions in past years. The results will help you decide how hot, cold, wet, or windy it might be!

Date:

Astronomy

Feb. 12, 2014 Rise Set
Actual Time 6:55 AM CST 5:28 PM CST
Civil Twilight 6:27 AM CST 5:56 PM CST
Nautical Twilight 5:55 AM CST 6:29 PM CST
Astronomical Twilight 5:23 AM CST 7:01 PM CST
Moon 3:41 PM CST (2/12) 5:12 AM CST (2/12)
Length of Visible Light 11h 29m
Length of Day
10h 32m
Waxing Gibbous, 95% of the Moon is Illuminated
Feb 12
Waxing Gibbous
Feb 14
Full
Feb 22
Last Quarter
Mar 1
New
Mar 8
First Quarter

Hourly Weather History & Observations

Time (CST) Temp. Windchill Dew Point Humidity Pressure Visibility Wind Dir Wind Speed Gust Speed Precip Events Conditions
12:15 AM -12.1 °F - -16.1 °F 83% 30.35 in 10.0 mi Calm Calm - N/A   Clear
12:35 AM -11.6 °F - -15.7 °F 82% 30.35 in 10.0 mi Calm Calm - N/A   Clear
12:55 AM -11.2 °F - -15.2 °F 83% 30.34 in 10.0 mi Calm Calm - N/A   Scattered Clouds
1:15 AM -11.4 °F - -15.5 °F 82% 30.34 in 10.0 mi Calm Calm - N/A   Clear
1:35 AM -10.7 °F - -15.2 °F 80% 30.34 in 10.0 mi Calm Calm - N/A   Clear
1:55 AM -14.4 °F - -18.9 °F 80% 30.34 in 10.0 mi Calm Calm - N/A   Clear
2:15 AM -12.5 °F - -17.0 °F 80% 30.33 in 10.0 mi Calm Calm - N/A   Clear
2:35 AM -11.7 °F - -16.2 °F 80% 30.32 in 10.0 mi Calm Calm - N/A   Clear
2:55 AM -12.1 °F - -16.4 °F 81% 30.31 in 7.0 mi Calm Calm - N/A   Clear
3:15 AM -11.6 °F - -15.9 °F 81% 30.30 in 10.0 mi Calm Calm - N/A   Clear
3:35 AM -13.5 °F -23.3 °F -18.4 °F 79% 30.29 in 10.0 mi ESE 3.5 mph - N/A   Clear
3:55 AM -9.4 °F -24.3 °F -13.7 °F 81% 30.29 in 10.0 mi SSE 6.9 mph - N/A   Scattered Clouds
4:15 AM -4.9 °F -13.4 °F -8.5 °F 84% 30.27 in 10.0 mi South 3.5 mph - N/A   Clear
4:35 AM -10.7 °F - -15.3 °F 80% 30.28 in 10.0 mi Calm Calm - N/A   Clear
4:55 AM -10.5 °F -19.8 °F -15.0 °F 80% 30.28 in 10.0 mi East 3.5 mph - N/A   Mostly Cloudy
5:15 AM -8.3 °F -19.6 °F -12.6 °F 81% 30.26 in 10.0 mi SE 4.6 mph - N/A   Mostly Cloudy
5:35 AM -5.6 °F - -9.6 °F 83% 30.26 in 10.0 mi Calm Calm - N/A   Overcast
5:55 AM -6.7 °F -19.5 °F -10.7 °F 83% 30.28 in 7.0 mi NNW 5.8 mph - N/A   Overcast
6:15 AM -5.3 °F -13.8 °F -8.7 °F 85% 30.25 in 10.0 mi SE 3.5 mph - N/A   Overcast
6:35 AM -1.3 °F - -5.3 °F 83% 30.25 in 10.0 mi Calm Calm - N/A   Overcast
6:55 AM -0.9 °F - -4.9 °F 83% 30.24 in 7.0 mi Calm Calm - N/A   Overcast
7:15 AM -0.6 °F - -4.5 °F 83% 30.24 in 7.0 mi Calm Calm - N/A   Overcast
7:35 AM -1.3 °F - -5.1 °F 84% 30.25 in 7.0 mi Calm Calm - N/A   Overcast
7:55 AM -0.8 °F - -4.4 °F 85% 30.24 in 7.0 mi Calm Calm - N/A   Overcast
8:15 AM 0.7 °F - -3.5 °F 83% 30.24 in 7.0 mi Calm Calm - N/A   Overcast
8:35 AM 2.3 °F - -2.2 °F 81% 30.24 in 7.0 mi Calm Calm - N/A   Overcast
8:55 AM 3.4 °F - -1.5 °F 80% 30.24 in 7.0 mi Calm Calm - N/A   Overcast
9:15 AM 4.8 °F - -0.4 °F 79% 30.23 in 7.0 mi Calm Calm - N/A   Mostly Cloudy
9:35 AM 6.1 °F - 0.3 °F 77% 30.24 in 7.0 mi Calm Calm - N/A   Scattered Clouds
9:55 AM 7.0 °F - 1.0 °F 77% 30.23 in 7.0 mi Calm Calm - N/A   Scattered Clouds
10:15 AM 8.6 °F - 1.6 °F 73% 30.23 in 10.0 mi Calm Calm - N/A   Scattered Clouds
10:35 AM 10.8 °F - 2.8 °F 70% 30.21 in 10.0 mi Calm Calm - N/A   Mostly Cloudy
10:55 AM 12.4 °F 6.3 °F 4.1 °F 69% 30.21 in 10.0 mi NNW 3.5 mph - N/A   Scattered Clouds
11:15 AM 14.4 °F - 5.4 °F 67% 30.20 in 10.0 mi Calm Calm - N/A   Clear
11:35 AM 17.1 °F - 6.8 °F 64% 30.20 in 10.0 mi Calm Calm - N/A   Clear
11:55 AM 18.1 °F - 6.6 °F 61% 30.19 in 10.0 mi Calm Calm - N/A   Clear
12:15 PM 20.5 °F - 6.4 °F 55% 30.16 in 10.0 mi Calm Calm - N/A   Unknown
12:35 PM 21.7 °F - 7.2 °F 54% 30.15 in 10.0 mi Calm Calm - N/A   Clear
12:55 PM 23.2 °F - 7.5 °F 51% 30.13 in 10.0 mi Calm Calm - N/A   Clear
1:15 PM 23.7 °F 19.3 °F 6.8 °F 49% 30.12 in 10.0 mi SW 3.5 mph - N/A   Unknown
1:35 PM 24.6 °F 15.8 °F 7.0 °F 47% 30.11 in 10.0 mi WSW 8.1 mph - N/A   Unknown
1:55 PM 24.8 °F 16.1 °F 6.8 °F 46% 30.10 in 10.0 mi SW 8.1 mph - N/A   Unknown
2:15 PM 24.8 °F 17.9 °F 6.3 °F 45% 30.09 in 10.0 mi SW 5.8 mph - N/A   Unknown
2:35 PM 25.2 °F 19.5 °F 7.0 °F 46% 30.08 in 10.0 mi SSW 4.6 mph - N/A   Scattered Clouds
2:55 PM 25.2 °F 20.9 °F 10.0 °F 53% 30.08 in 10.0 mi South 3.5 mph - N/A   Clear
3:15 PM 25.0 °F 19.3 °F 10.8 °F 55% 30.08 in 10.0 mi SE 4.6 mph - N/A   Clear
3:35 PM 24.1 °F 19.7 °F 11.1 °F 58% 30.08 in 10.0 mi SE 3.5 mph - N/A   Clear
3:55 PM 23.9 °F 18.0 °F 10.8 °F 57% 30.08 in 10.0 mi ESE 4.6 mph - N/A   Scattered Clouds
4:15 PM 23.2 °F 17.2 °F 10.9 °F 60% 30.07 in 10.0 mi SE 4.6 mph - N/A   Mostly Cloudy
4:35 PM 23.0 °F 18.4 °F 10.9 °F 60% 30.07 in 10.0 mi ESE 3.5 mph - N/A   Overcast
4:55 PM 22.6 °F 16.5 °F 10.4 °F 59% 30.08 in 10.0 mi SE 4.6 mph - N/A   Overcast
5:15 PM 22.1 °F 15.9 °F 9.5 °F 58% 30.08 in 10.0 mi SE 4.6 mph - N/A   Overcast
5:35 PM 21.2 °F 13.6 °F 9.1 °F 60% 30.07 in 10.0 mi SE 5.8 mph - N/A   Overcast
5:55 PM 20.7 °F 15.8 °F 9.5 °F 62% 30.08 in 10.0 mi ESE 3.5 mph - N/A   Overcast
6:15 PM 20.7 °F - 10.0 °F 64% 30.09 in 10.0 mi Calm Calm - N/A   Overcast
6:35 PM 19.8 °F - 10.6 °F 68% 30.09 in 10.0 mi Calm Calm - N/A   Overcast
6:55 PM 18.7 °F - 11.3 °F 73% 30.10 in 10.0 mi Calm Calm - N/A   Overcast
7:15 PM 19.4 °F 14.3 °F 11.5 °F 71% 30.09 in 10.0 mi SE 3.5 mph - N/A   Overcast
7:35 PM 19.2 °F 12.5 °F 10.9 °F 70% 30.07 in 10.0 mi ESE 4.6 mph - N/A   Overcast
7:55 PM 17.4 °F - 10.0 °F 73% 30.06 in 10.0 mi Calm Calm - N/A   Mostly Cloudy
8:15 PM 16.7 °F - 8.8 °F 71% 30.05 in 10.0 mi Calm Calm - N/A   Scattered Clouds
8:35 PM 14.2 °F - 7.7 °F 75% 30.05 in 10.0 mi Calm Calm - N/A   Clear
8:55 PM 12.0 °F - 5.0 °F 73% 30.04 in 10.0 mi Calm Calm - N/A   Clear
9:15 PM 13.3 °F 7.3 °F 7.7 °F 78% 30.02 in 10.0 mi ESE 3.5 mph - N/A   Clear
9:35 PM 13.5 °F - 7.2 °F 76% 30.03 in 10.0 mi Calm Calm - N/A   Clear
10:15 PM 12.0 °F 1.5 °F 6.6 °F 79% 30.02 in 10.0 mi SE 6.9 mph - N/A   Scattered Clouds
10:35 PM 11.1 °F 1.7 °F 5.4 °F 78% 30.03 in 10.0 mi SSE 5.8 mph - N/A   Mostly Cloudy
10:55 PM 10.8 °F - 5.4 °F 79% 30.02 in 10.0 mi Calm Calm - N/A   Overcast
11:15 PM 9.1 °F - 3.6 °F 78% 30.02 in 10.0 mi Calm Calm - N/A   Mostly Cloudy
11:35 PM 7.7 °F - 2.5 °F 79% 30.02 in 7.0 mi Calm Calm - N/A   Clear
11:55 PM 8.8 °F - 4.3 °F 82% 30.01 in 10.0 mi Calm Calm - N/A   Clear